Weather History for Biloxi, MS

Change the Weather History Date:

Friday, April 12, 2013

  Actual Average Record
Temperature  
Mean Temperature 62 °F -  
Max Temperature 75 °F 75 °F 87 °F (1954)
Min Temperature 51 °F 59 °F 41 °F (1951)
Degree Days  
Heating Degree Days 2    
Growing Degree Days 12 (Base 50)    
Moisture  
Dew Point 48 °F    
Average Humidity 65    
Maximum Humidity 94    
Minimum Humidity 33    
Precipitation  
Precipitation 0.00 in - - ()
Sea Level Pressure  
Sea Level Pressure 29.91 in    
Wind  
Wind Speed 10 mph (North)    
Max Wind Speed 14 mph    
Max Gust Speed 20 mph    
Visibility 10 miles    
Events      
Averages and records for this station are not official NWS values.
T = Trace of Precipitation, MM = Missing Value Source: NWS Daily Summary

Daily Weather History Graph

Daily Weather History Graph

Search for Another Location

Airport:

Trip Planner

Search our weather history database for the weather conditions in past years. The results will help you decide how hot, cold, wet, or windy it might be!

Date:

Astronomy

Apr. 12, 2013 Rise Set
Actual Time 6:31 AM CDT 7:21 PM CDT
Civil Twilight 6:07 AM CDT 7:46 PM CDT
Nautical Twilight 5:38 AM CDT 8:15 PM CDT
Astronomical Twilight 5:08 AM CDT 8:44 PM CDT
Moon 7:50 AM CDT (4/12) 9:41 PM CDT (4/12)
Length of Visible Light 13h 39m
Length of Day
12h 50m
Waxing Crescent, 5% of the Moon is Illuminated
Apr 12
Waxing Crescent
Apr 18
First Quarter
Apr 25
Full
May 2
Last Quarter
May 9
New

Hourly Weather History & Observations

Time (CDT) Temp. Dew Point Humidity Pressure Visibility Wind Dir Wind Speed Gust Speed Precip Events Conditions
12:58 AM 56.1 °F 53.6 °F 91% 29.83 in 10.0 mi NNW 6.9 mph - N/A   Clear
1:48 AM 55.4 °F 53.6 °F 94% 29.84 in 10.0 mi NNW 12.7 mph - N/A   Mostly Cloudy
1:58 AM 55.6 °F 52.9 °F 91% 29.85 in 10.0 mi NNW 13.8 mph - N/A   Mostly Cloudy
2:23 AM 55.4 °F 51.8 °F 88% 29.83 in 10.0 mi North 10.4 mph - N/A   Overcast
2:58 AM 55.8 °F 52.5 °F 89% 29.84 in 10.0 mi NW 12.7 mph - N/A   Overcast
3:28 AM 55.4 °F 51.8 °F 88% 29.84 in 10.0 mi NNW 11.5 mph - N/A   Overcast
3:58 AM 54.0 °F 50.2 °F 87% 29.86 in 10.0 mi NNW 8.1 mph - N/A   Overcast
4:58 AM 53.4 °F 49.8 °F 88% 29.87 in 10.0 mi NNW 10.4 mph - N/A   Overcast
5:58 AM 52.7 °F 49.1 °F 88% 29.90 in 10.0 mi North 13.8 mph 19.6 mph N/A   Mostly Cloudy
6:08 AM 51.8 °F 48.2 °F 88% 29.89 in 10.0 mi North 11.5 mph 19.6 mph N/A   Scattered Clouds
6:58 AM 51.3 °F 47.5 °F 87% 29.91 in 10.0 mi North 10.4 mph - N/A   Clear
7:55 AM 53.6 °F 48.2 °F 82% 29.93 in 10.0 mi North 11.5 mph - N/A   Clear
8:58 AM 56.8 °F 45.7 °F 66% 29.94 in 10.0 mi NNE 11.5 mph 19.6 mph N/A   Clear
9:58 AM 61.2 °F 45.3 °F 56% 29.96 in 10.0 mi NNE 13.8 mph - N/A   Clear
10:58 AM 64.9 °F 46.0 °F 50% 29.96 in 10.0 mi North 12.7 mph - N/A   Clear
11:58 AM 68.0 °F 44.8 °F 43% 29.96 in 10.0 mi NNW 12.7 mph 18.4 mph N/A   Clear
12:58 PM 71.4 °F 43.9 °F 37% 29.95 in 10.0 mi North 12.7 mph 18.4 mph N/A   Clear
1:58 PM 72.3 °F 43.2 °F 35% 29.94 in 10.0 mi NNW 10.4 mph - N/A   Clear
2:58 PM 73.8 °F 44.1 °F 34% 29.92 in 10.0 mi North 8.1 mph - N/A   Clear
3:58 PM 73.6 °F 43.5 °F 34% 29.91 in 10.0 mi North 10.4 mph - N/A   Clear
4:58 PM 74.8 °F 44.2 °F 33% 29.91 in 10.0 mi Variable 6.9 mph - N/A   Clear
5:58 PM 73.8 °F 44.8 °F 35% 29.91 in 10.0 mi North 8.1 mph - N/A   Clear
6:58 PM 72.1 °F 46.0 °F 39% 29.92 in 10.0 mi North 5.8 mph - N/A   Clear
7:58 PM 68.2 °F 49.5 °F 51% 29.94 in 10.0 mi NE 2.3 mph - N/A   Clear
8:58 PM 66.9 °F 52.0 °F 59% 29.97 in 10.0 mi NNW 2.3 mph - N/A   Clear
9:58 PM 63.0 °F 50.9 °F 65% 29.98 in 10.0 mi NNW 1.2 mph - N/A   Clear
10:58 PM 64.0 °F 47.8 °F 56% 29.99 in 10.0 mi North 8.1 mph - N/A   Clear
11:58 PM 61.3 °F 46.6 °F 58% 29.99 in 10.0 mi NNE 4.6 mph - N/A   Clear